Worland, WY

1:20 AM MDT on April 27, 2017 (GMT -0600)
Worland Municipal

Weather History for KWRL - March, 2013

Change the Weather History Date:

Sunday, March 17, 2013

  Actual Average Record
Temperature  
Mean Temperature 35 °F 37 °F  
Max Temperature 47 °F 51 °F 72 °F (2012)
Min Temperature 23 °F 23 °F 0 °F (1965)
Degree Days  
Heating Degree Days 30 28  
Month to date heating degree days 474 529  
Since 1 July heating degree days 6056 6530  
Cooling Degree Days 0 0  
Month to date cooling degree days 0 0  
Year to date cooling degree days 0 0  
Moisture  
Dew Point 25 °F    
Average Humidity 61    
Maximum Humidity 85    
Minimum Humidity 37    
Precipitation  
Precipitation 0.01 in 0.02 in 0.83 in (1998)
Month to date precipitation 0.09 0.23  
Year to date precipitation 0.48 0.65  
Sea Level Pressure  
Sea Level Pressure 29.62 in    
Wind  
Wind Speed 10 mph (NNW)    
Max Wind Speed 38 mph    
Max Gust Speed 46 mph    
Visibility 9 miles    
Events Fog , Snow    
T = Trace of Precipitation, MM = Missing Value Source: NWS Daily Summary

Daily Weather History Graph

Daily Weather History Graph

Search for Another Location

Airport or City:

Trip Planner

Search our weather history database for the weather conditions in past years. The results will help you decide how hot, cold, wet, or windy it might be!

Date:

Astronomy

Mar. 17, 2013 Rise Set
Actual Time 7:19 AM MDT 7:20 PM MDT
Civil Twilight 6:51 AM MDT 7:49 PM MDT
Nautical Twilight 6:17 AM MDT 8:23 PM MDT
Astronomical Twilight 5:43 AM MDT 8:57 PM MDT
Moon 10:23 AM MDT (3/17) 12:42 AM MDT (3/17)
Length of Visible Light 12h 58m
Length of Day
12h 01m
Waxing Crescent, 32% of the Moon is Illuminated
Mar 17
Waxing Crescent
Mar 19
First Quarter
Mar 27
Full
Apr 2
Last Quarter
Apr 10
New

Hourly Weather History & Observations

Time (MDT) Temp. Windchill Dew Point Humidity Pressure Visibility Wind Dir Wind Speed Gust Speed Precip Events Conditions
12:53 AM 37.9 °F 32.1 °F 30.0 °F 73% 29.66 in 10.0 mi South 8.1 mph - N/A   Clear
1:53 AM 37.0 °F 33.3 °F 30.0 °F 76% 29.60 in 10.0 mi ESE 4.6 mph - N/A   Clear
2:53 AM 41.0 °F 35.2 °F 28.9 °F 62% 29.54 in 10.0 mi SSE 9.2 mph - N/A   Clear
3:53 AM 35.1 °F 32.2 °F 30.0 °F 82% 29.51 in 10.0 mi SW 3.5 mph - N/A   Clear
4:53 AM 34.0 °F 29.8 °F 28.0 °F 79% 29.48 in 10.0 mi SW 4.6 mph - N/A   Scattered Clouds
5:53 AM 37.9 °F 32.1 °F 25.0 °F 60% 29.48 in 10.0 mi South 8.1 mph - N/A   Clear
6:53 AM 39.0 °F 34.8 °F 24.1 °F 55% 29.45 in 10.0 mi Variable 5.8 mph - N/A   Clear
7:53 AM 37.9 °F 35.5 °F 24.1 °F 57% 29.46 in 10.0 mi West 3.5 mph - N/A   Clear
8:53 AM 37.9 °F 35.5 °F 28.0 °F 68% 29.48 in 10.0 mi NW 3.5 mph - N/A   Scattered Clouds
9:53 AM 46.0 °F 38.8 °F 21.9 °F 39% 29.48 in 10.0 mi WSW 18.4 mph 26.5 mph N/A   Clear
10:15 AM 39.2 °F 28.5 °F 30.2 °F 70% 29.48 in 10.0 mi North 24.2 mph 34.5 mph N/A   Mostly Cloudy
10:53 AM 41.0 °F 31.9 °F 30.9 °F 67% 29.52 in 10.0 mi North 19.6 mph 25.3 mph N/A   Mostly Cloudy
11:17 AM 39.2 °F 30.5 °F 28.4 °F 65% 29.51 in 10.0 mi North 16.1 mph 24.2 mph N/A   Overcast
11:53 AM 37.9 °F 30.0 °F 28.9 °F 70% 29.55 in 10.0 mi North 12.7 mph 19.6 mph N/A   Mostly Cloudy
12:05 PM 37.4 °F 29.8 °F 30.2 °F 75% 29.51 in 10.0 mi North 11.5 mph - N/A   Mostly Cloudy
12:53 PM 41.0 °F 32.2 °F 27.0 °F 57% 29.55 in 10.0 mi North 18.4 mph 27.6 mph N/A   Mostly Cloudy
2:10 PM 32.0 °F 16.7 °F 26.6 °F 80% 29.59 in 0.8 mi NNW 34.5 mph 46.0 mph 0.00 in Snow Light Snow
2:16 PM 30.2 °F 14.1 °F 26.6 °F 86% 29.60 in 0.2 mi NNW 35.7 mph 46.0 mph 0.00 in Fog , Snow Heavy Snow
2:26 PM 28.4 °F 13.0 °F 26.6 °F 93% 29.61 in 0.2 mi NNW 28.8 mph 38.0 mph 0.01 in Fog , Snow Heavy Snow
2:33 PM 28.4 °F 14.7 °F 26.6 °F 93% 29.59 in 0.5 mi North 21.9 mph 35.7 mph 0.01 in Fog , Snow Light Snow
2:41 PM 30.2 °F 17.4 °F 26.6 °F 86% 29.59 in 2.5 mi North 20.7 mph 32.2 mph 0.01 in Snow Light Snow
2:48 PM 30.2 °F 18.5 °F 26.6 °F 86% 29.59 in 8.0 mi North 17.3 mph 28.8 mph 0.01 in   Overcast
2:53 PM 30.0 °F 18.3 °F 27.0 °F 88% 29.64 in 9.0 mi North 17.3 mph 26.5 mph 0.01 in   Overcast
3:18 PM 30.2 °F 17.4 °F 26.6 °F 86% 29.61 in 10.0 mi North 20.7 mph 29.9 mph N/A   Overcast
3:28 PM 30.2 °F 17.4 °F 24.8 °F 80% 29.62 in 10.0 mi North 20.7 mph 28.8 mph N/A   Overcast
3:53 PM 32.0 °F 18.6 °F 23.0 °F 69% 29.70 in 10.0 mi North 25.3 mph 33.4 mph N/A   Overcast
4:53 PM 34.0 °F 25.0 °F 18.0 °F 52% 29.75 in 10.0 mi North 12.7 mph 19.6 mph N/A   Overcast
5:53 PM 34.0 °F 26.0 °F 19.0 °F 54% 29.77 in 10.0 mi NNE 10.4 mph - N/A   Mostly Cloudy
6:53 PM 34.0 °F 26.0 °F 19.0 °F 54% 29.80 in 10.0 mi North 10.4 mph - N/A   Scattered Clouds
7:53 PM 32.0 °F 28.7 °F 16.0 °F 52% 29.83 in 10.0 mi WSW 3.5 mph - N/A   Clear
8:53 PM 33.1 °F - 14.0 °F 46% 29.85 in 10.0 mi Calm Calm - N/A   Overcast
9:53 PM 32.0 °F 26.4 °F 18.0 °F 56% 29.86 in 10.0 mi SW 5.8 mph - N/A   Overcast
10:53 PM 27.0 °F 20.5 °F 19.9 °F 75% 29.90 in 10.0 mi WSW 5.8 mph - N/A   Scattered Clouds
11:53 PM 28.0 °F 24.2 °F 17.1 °F 63% 29.93 in 10.0 mi SSE 3.5 mph - N/A   Clear